Regional Weather Roundup
Issued by NWS

Home | Current Version | Previous Version | Text Only | Print | Product List | Glossary On
Versions: 1 2 3 4 5 6 7 8 9 10 11 12 13 14 15 16 17 18 19 20 21 22 23 24 25 26 27 28 29 30 31 32 33 34 35 36 37 38 39 40 41 42 43 44 45 46 47 48 49 50
000
ASUS43 KDTX 202110
RWRMI
MICHIGAN HOURLY REGIONAL WEATHER ROUNDUP
NATIONAL WEATHER SERVICE DETROIT/PONTIAC MI
500 PM EDT SUN MAY 20 2018

NOTE: "FAIR" INDICATES FEW OR NO CLOUDS BELOW 12,000 FEET WITH NO
SIGNIFICANT WEATHER AND/OR OBSTRUCTION TO VISIBILITY.

MIZ047>049-052>055-059>063-066>070-074>076-081>083-202200-
SOUTHEAST LOWER MICHIGAN

CITY           SKY/WX    TMP DP  RH WIND       PRES   REMARKS
ADRIAN         CLOUDY    65  58  78 NE8       30.16F
ALMA           CLOUDY    57  51  80 N3        30.21S
ANN ARBOR      PTSUNNY   63  57  81 N7        30.16F
BAD AXE        FAIR      55  47  75 N6        30.21F
CARO           CLOUDY    58  50  75 N3        30.19F
DETROIT CITY   CLOUDY    58  51  78 E10       30.18S
DETROIT        CLOUDY    64  54  69 NE6       30.17F
FLINT          CLOUDY    58  50  75 CALM      30.20F
GROSSE ILE     CLOUDY    58  55  89 SE3       30.17F
HILLSDALE      CLOUDY    63  55  77 CALM      30.16F
HOWELL         CLOUDY    58  53  81 CALM      30.18F

CITY           SKY/WX    TMP DP  RH WIND       PRES   REMARKS
JACKSON        CLOUDY    60  56  86 N5        30.16F
LAMBERTVILLE   LGT RAIN  62  57  84 E6        30.15F
LANSING        CLOUDY    59  53  80 N5        30.19F
LAPEER         CLOUDY    57  49  75 CALM      30.20F
MASON          LGT RAIN  58  53  84 NE3       30.18F
MONROE         RAIN      60  58  91 S5        30.15F
MT. CLEMENS    CLOUDY    58  57  97 N10       30.19R
PONTIAC        CLOUDY    59  53  80 N10       30.17S
PORT HOPE        N/A     47  42  83 NE5       30.21S
PORT HURON     PTSUNNY   54  45  71 NE10      30.21S
TRI CITIES     FAIR      57  48  72 NE7       30.20F
MIDLAND        CLOUDY    55  49  79 E3        30.20F
TROY           CLOUDY    60  53  79 NE7       30.20F
SAGINAW HB     FAIR      57  46  67 N8        30.19F
$$
MIZ043>046-050>051-056>058-064>065-071>073-077>080-202200-
SOUTHWEST LOWER MICHIGAN

CITY           SKY/WX    TMP DP  RH WIND       PRES   REMARKS
BATTLE CREEK   LGT RAIN  58  55  90 NE9       30.17S
BENTON HARBOR    N/A     53  50  89 MISG      30.19R
BIG RAPIDS     FAIR      62  48  58 N3        30.19S
COLDWATER      CLOUDY    63  58  82 NE5       30.15F
FREMONT        CLOUDY    61  51  70 CALM      30.19F
HOLLAND        CLOUDY    59  53  80 VRB3      30.19F
GRAND RAPIDS   CLOUDY    58  52  80 NE9       30.19R
IONIA          LGT RAIN  57  51  80 N6        30.19S
KALAMAZOO      CLOUDY    61  57  87 VRB3      30.17S
LUDINGTON      FAIR      57  46  66 NW9       30.20F
MARSHALL       LGT RAIN  58  56  95 CALM      30.16S
MOUNT PLEASANT FAIR      60  50  70 CALM      30.19F
MUSKEGON       PTSUNNY   63  50  62 CALM      30.19F
SOUTH HAVEN    CLOUDY    51  48  90 N9        30.19S
$$
MIZ016>042-202200-
NORTHERN LOWER MICHIGAN

CITY           SKY/WX    TMP DP  RH WIND       PRES   REMARKS
ALPENA         FAIR      64  42  44 N9        30.19F
BEAVER ISLAND  FAIR      62  28  27 NW5       30.23S
BELLAIRE       FAIR      60  43  53 NW7       30.20F
CADILLAC       FAIR      65  43  44 CALM      30.17F
CHARLEVOIX     FAIR      54  40  60 W8        30.25S
FRANKFORT      FAIR      56  42  61 NW6       30.22S
GAYLORD        FAIR      64  42  44 VRB3      30.18F
GRAYLING       FAIR      68  41  37 NW7       30.16F
HARBOR SPRINGS FAIR      49  40  70 SW8       30.22F
HOUGHTON LAKE  FAIR      64  44  48 W7        30.18F
MANISTEE       FAIR      56  43  61 NW8       30.21F
OSCODA         FAIR      52  39  61 E6        30.21F
PELLSTON       FAIR      64  30  27 VRB6      30.20F
ROGERS CITY    FAIR      57  34  43 N6        30.22F
TRAVERSE CITY  FAIR      55  43  63 N7        30.21S
$$
MIZ007>008-015-202200-
EASTERN UPPER MICHIGAN

CITY           SKY/WX    TMP DP  RH WIND       PRES   REMARKS
KINROSS        FAIR      54  25  32 N16G23    30.22S
MACKINAC ISLAN FAIR      58  31  35 W9        30.22S
NEWBERRY       FAIR      60  28  30 N6        30.22S
S. S. MARIE    FAIR      57  30  35 NW12      30.21F
MUNISING         N/A     46  36  68 N6        30.25F
$$
MIZ004>006-011>014-085-202200-
CENTRAL UPPER MICHIGAN

CITY           SKY/WX    TMP DP  RH WIND       PRES   REMARKS
MANISTIQUE     FAIR      55  32  42 S7        30.22F
ESCANABA       FAIR      59  33  37 SE8       30.22F
SAWYER-GWINN   SUNNY     63  28  27 NE9       30.23F
$$
MIZ001>003-009>011-084-202200-
WESTERN UPPER MICHIGAN

CITY           SKY/WX    TMP DP  RH WIND       PRES   REMARKS
IRON MOUNTAIN  FAIR      69  24  18 VRB7      30.19F
HOUGHTON       FAIR      65  30  27 NW9       30.21F
COPPER HARBOR    N/A     52  36  54 N3        30.20F
IRONWOOD       FAIR      64  33  31 VRB7      30.23F
$$

ABBREVIATIONS USED IN REMARKS
   TC - TEMPERATURE IN CELSIUS
  WCI - WIND CHILL INDEX
   HX - HEAT INDEX
  VSB - VISIBILITY




USA.gov is the U.S. government's official web portal to all federal, state and local government web resources and services.